Location: Gradaro
(45.0833°N, 10.8833°E)
Time: 23:05:41
(UTC+00:00)

FENGYUN 1C DEB - Pass Details

Date: 22 June 2021
Orbit: 744 x 851 km, 99.4° (Epoch: 27 July)

Event Time Altitude Azimuth Distance (km) Brightness Sun altitude
Exits shadow 21:40:11 - 94° (E) 3,061 ? -17.9°
Reaches altitude 10° 21:43:39 10° 64° (ENE) 2,427 ? -18.1°
Maximum altitude 21:44:43 11° 52° (NE) 2,379 ? -18.2°
Drops below altitude 10° 21:45:48 10° 40° (NE) 2,416 ? -18.3°
Sets 21:50:19 0° 4° (N) 3,323 ? -18.6°
